Starlink 30227

operational
NORAD ID: 57505 Int'l Des: 2023-113 Owner: SPXS Country: US Constellation: starlink
LEOCIRCULAR

Über Starlink 30227

Beschreibung wird geladen...

Live-Position

3D-Globus wird geladen...

Nächste Überflüge

Höhenverlauf

Altitude vs Time

uPlot chart will show altitude changes over time

Zweizeiliger Elementsatz

1 57505U 23113L 25353.55885748 .00001551 00000-0 12992-3 0 9998
2 57505 43.0035 79.9650 0001458 270.1478 89.9197 15.02525757131751
Epoch: 19. Dez. 2025 • Age: 18 hours

Aktueller Status

Höhe 558.6 km
Geschwindigkeit 7.58 km/s
Subsatellitenpunkt 14.02°N, 36.21°E
Startdatum 7. Aug. 2023
Alter 2.3 years
Typ internet

Technische Details

Klassifizierung Payload
Masse 730.00 kg
Trockenmasse 700.00 kg
Gesamtmasse 730.00 kg
Länge 0.30 m
Durchmesser 4.10 m
Spannweite 29.00 m
Form Box + pan
Hersteller SPXS
Bus-Typ Starlink V2M
Phasenstatus In Orbit
Besitzer/Staat SPXS/US

Große Konstellationen

Loading constellations...